Dryden, TX

10:10 PM CST on February 21, 2018 (GMT -0600)
Dryden

Weather History for K6R6 - August, 2013

Change the Weather History Date:

Saturday, August 10, 2013

  Actual Average (KFST) Record (KFST)
Temperature  
Mean Temperature 75 °F -  
Max Temperature 102 °F 92 °F 106 °F (2011)
Min Temperature 50 °F 69 °F 64 °F (2004)
Cooling Degree Days 10    
Growing Degree Days 25 (Base 50)    
Moisture  
Dew Point 59 °F    
Average Humidity 40    
Maximum Humidity 87    
Minimum Humidity 24    
Precipitation  
Precipitation 0.00 in - - ()
Sea Level Pressure  
Sea Level Pressure 29.94 in    
Wind  
Wind Speed 8 mph (NE)    
Max Wind Speed 13 mph    
Max Gust Speed 22 mph    
Averages and records for this station are not official NWS values.
T = Trace of Precipitation, MM = Missing Value Source: NWS Daily Summary

Daily Weather History Graph

Daily Weather History Graph

Search for Another Location

Airport or City:

Trip Planner

Search our weather history database for the weather conditions in past years. The results will help you decide how hot, cold, wet, or windy it might be!

Date:

Astronomy

Aug. 10, 2013 Rise Set
Actual Time 7:13 AM CDT 8:34 PM CDT
Civil Twilight 6:47 AM CDT 8:59 PM CDT
Nautical Twilight 6:17 AM CDT 9:30 PM CDT
Astronomical Twilight 5:46 AM CDT 10:01 PM CDT
Moon 10:40 AM CDT (8/10) 10:40 PM CDT (8/10)
Length of Visible Light 14h 11m
Length of Day
13h 21m
Waxing Crescent, 14% of the Moon is Illuminated
Aug 10
Waxing Crescent
Aug 14
First Quarter
Aug 20
Full
Aug 28
Last Quarter
Sep 5
New

Hourly Weather History & Observations

Time (CDT) Temp. Heat Index Dew Point Humidity Pressure Visibility Wind Dir Wind Speed Gust Speed Precip Events Conditions
12:53 AM 87.1 °F 86.1 °F 57.9 °F 37% 29.92 in - North 6.9 mph - N/A   Unknown
1:53 AM 84.0 °F 83.8 °F 59.0 °F 43% 29.92 in - NNE 6.9 mph - N/A   Unknown
2:53 AM 82.0 °F 82.1 °F 59.0 °F 45% 29.92 in - North 8.1 mph - N/A   Unknown
3:53 AM 81.0 °F 80.8 °F 55.9 °F 42% 29.92 in - NNE 9.2 mph - N/A   Unknown
4:53 AM 79.0 °F - 54.0 °F 42% 29.92 in - NE 8.1 mph - N/A   Unknown
5:53 AM 78.1 °F - 54.0 °F 43% 29.93 in - NNE 8.1 mph - N/A   Unknown
6:53 AM 77.0 °F - 55.9 °F 48% 29.94 in - NNE 8.1 mph - N/A   Unknown
7:53 AM 78.1 °F - 60.1 °F 54% 29.96 in - North 5.8 mph - N/A   Unknown
8:53 AM 84.0 °F 84.5 °F 62.1 °F 47% 29.98 in - NE 5.8 mph - N/A   Unknown
9:53 AM 86.0 °F 86.3 °F 62.1 °F 44% 29.99 in - East 4.6 mph - N/A   Unknown
10:53 AM 91.9 °F 91.8 °F 61.0 °F 35% 30.00 in - ENE 4.6 mph - N/A   Unknown
11:53 AM 93.0 °F 92.3 °F 59.0 °F 32% 30.00 in - Variable 4.6 mph - N/A   Unknown
12:53 PM 96.1 °F 96.0 °F 60.1 °F 30% 29.99 in - ESE 8.1 mph - N/A   Unknown
1:53 PM 97.0 °F 96.5 °F 59.0 °F 28% 29.97 in - East 10.4 mph - N/A   Unknown
2:53 PM 100.0 °F 99.2 °F 57.0 °F 24% 29.95 in - East 11.5 mph 19.6 mph N/A   Unknown
3:53 PM 100.0 °F 99.2 °F 57.0 °F 24% 29.91 in - SE 4.6 mph 21.9 mph N/A   Unknown
4:15 PM 50.0 °F - 46.4 °F 87% - - North - - N/A   Unknown
4:53 PM 99.0 °F 97.7 °F 55.9 °F 24% 29.90 in - ESE 8.1 mph - N/A   Unknown
5:53 PM 99.0 °F 97.7 °F 55.9 °F 24% 29.88 in - ENE 6.9 mph 17.3 mph N/A   Unknown
6:53 PM 91.0 °F 91.5 °F 62.1 °F 38% 29.91 in - West 6.9 mph 16.1 mph N/A   Unknown
7:53 PM 93.0 °F 93.8 °F 62.1 °F 36% 29.91 in - NE 11.5 mph - N/A   Unknown
8:53 PM 89.1 °F 89.3 °F 62.1 °F 40% 29.92 in - NNE 10.4 mph - N/A   Unknown
9:53 PM 84.9 °F 86.1 °F 64.0 °F 49% 29.94 in - NNE 5.8 mph - N/A   Unknown
10:53 PM 84.9 °F 85.9 °F 63.0 °F 48% 29.96 in - NNE 9.2 mph - N/A   Unknown
11:53 PM 84.9 °F 85.9 °F 63.0 °F 48% 29.98 in - ENE 12.7 mph 21.9 mph N/A   Unknown